| time (UTC) | temp C | wind direction | speed KPH | gust KPH | rain 1hr cm | rain 24hr cm | rain mn cm | humidity % | barometer mb |
| 20260508014451 | 16 | 338 | 1.6 | 1.6 | 0.00 | 0.00 | 0.00 | 38 | 1016.2 |
| 20260508013947 | 16 | 338 | 3.2 | 3.2 | 0.00 | 0.00 | 0.00 | 37 | 1016.2 |
| 20260508013443 | 16 | 339 | 0.0 | 0.0 | 0.00 | 0.00 | 0.00 | 34 | 1016.3 |
| 20260508012941 | 17 | 339 | 0.0 | 1.6 | 0.00 | 0.00 | 0.00 | 32 | 1016.2 |
| 20260508012437 | 17 | 339 | 0.0 | 0.0 | 0.00 | 0.00 | 0.00 | 29 | 1016.2 |
| 20260508011935 | 17 | 339 | 0.0 | 0.0 | 0.00 | 0.00 | 0.00 | 27 | 1016.0 |
| 20260508011434 | 17 | 339 | 0.0 | 0.0 | 0.00 | 0.00 | 0.00 | 26 | 1015.8 |
| 20260508010930 | 17 | 339 | 0.0 | 0.0 | 0.00 | 0.00 | 0.00 | 25 | 1016.0 |
| 20260508010427 | 18 | 339 | 0.0 | 0.0 | 0.00 | 0.00 | 0.00 | 25 | 1016.0 |
| 20260508005924 | 18 | 339 | 0.0 | 0.0 | 0.00 | 0.00 | 0.00 | 23 | 1015.9 |
| 20260508005421 | 18 | 339 | 1.6 | 1.6 | 0.00 | 0.00 | 0.00 | 23 | 1015.9 |
| 20260508004917 | 18 | 339 | 0.0 | 0.0 | 0.00 | 0.00 | 0.00 | 22 | 1015.9 |
| 20260508004413 | 18 | 339 | 1.6 | 1.6 | 0.00 | 0.00 | 0.00 | 22 | 1015.8 |
| 20260508003910 | 19 | 339 | 0.0 | 0.0 | 0.00 | 0.00 | 0.00 | 23 | 1015.9 |
| 20260508003407 | 19 | 337 | 0.0 | 0.0 | 0.00 | 0.00 | 0.00 | 24 | 1015.8 |
| 20260508002904 | 18 | 341 | 3.2 | 3.2 | 0.00 | 0.00 | 0.00 | 22 | 1015.9 |
| 20260508002401 | 18 | 342 | 0.0 | 0.0 | 0.00 | 0.00 | 0.00 | 22 | 1015.8 |
| 20260508001857 | 19 | 342 | 0.0 | 0.0 | 0.00 | 0.00 | 0.00 | 24 | 1015.8 |
| 20260508001353 | 19 | 310 | 0.0 | 1.6 | 0.00 | 0.00 | 0.00 | 21 | 1015.8 |
| 20260508000849 | 20 | 297 | 3.2 | 4.8 | 0.00 | 0.00 | 0.00 | 21 | 1015.9 |
| 20260508000346 | 20 | 336 | 1.6 | 1.6 | 0.00 | 0.00 | 0.00 | 20 | 1015.7 |
| 20260507235843 | 20 | 337 | 0.0 | 0.0 | 0.00 | 0.00 | 0.00 | 23 | 1015.7 |
| 20260507235340 | 20 | 335 | 1.6 | 3.2 | 0.00 | 0.00 | 0.00 | 20 | 1015.9 |
| 20260507234837 | 21 | 353 | 0.0 | 0.0 | 0.00 | 0.00 | 0.00 | 20 | 1015.7 |
| 20260507234333 | 21 | 319 | 3.2 | 3.2 | 0.00 | 0.00 | 0.00 | 21 | 1015.6 |
| 20260507233830 | 22 | 353 | 0.0 | 1.6 | 0.00 | 0.00 | 0.00 | 22 | 1015.6 |
| 20260507233328 | 21 | 311 | 0.0 | 0.0 | 0.00 | 0.00 | 0.00 | 22 | 1015.8 |
| 20260507232826 | 21 | 335 | 1.6 | 1.6 | 0.00 | 0.00 | 0.00 | 22 | 1015.7 |
| 20260507232322 | 20 | 319 | 0.0 | 0.0 | 0.00 | 0.00 | 0.00 | 24 | 1015.8 |
| 20260507231819 | 19 | 320 | 0.0 | 0.0 | 0.00 | 0.00 | 0.00 | 22 | 1015.8 |
| 20260507231316 | 20 | 320 | 1.6 | 1.6 | 0.00 | 0.00 | 0.00 | 22 | 1015.8 |
| 20260507230812 | 20 | 322 | 0.0 | 0.0 | 0.00 | 0.00 | 0.00 | 23 | 1015.9 |
| 20260507230310 | 20 | 321 | 1.6 | 3.2 | 0.00 | 0.00 | 0.00 | 21 | 1015.8 |
| 20260507225810 | 20 | 294 | 0.0 | 1.6 | 0.00 | 0.00 | 0.00 | 21 | 1015.8 |
| 20260507225306 | 20 | 295 | 0.0 | 0.0 | 0.00 | 0.00 | 0.00 | 23 | 1015.8 |
| 20260507224802 | 21 | 286 | 1.6 | 1.6 | 0.00 | 0.00 | 0.00 | 22 | 1015.9 |
| 20260507224259 | 20 | 311 | 1.6 | 1.6 | 0.00 | 0.00 | 0.00 | 23 | 1015.8 |
| 20260507223755 | 19 | 328 | 0.0 | 0.0 | 0.00 | 0.00 | 0.00 | 24 | 1015.9 |
| 20260507223251 | 20 | 318 | 0.0 | 1.6 | 0.00 | 0.00 | 0.00 | 28 | 1015.9 |
| 20260507222749 | 20 | 334 | 0.0 | 0.0 | 0.00 | 0.00 | 0.00 | 25 | 1016.2 |
| 20260507222244 | 20 | 343 | 0.0 | 0.0 | 0.00 | 0.00 | 0.00 | 23 | 1016.2 |
| 20260507221742 | 19 | 329 | 1.6 | 1.6 | 0.00 | 0.00 | 0.00 | 23 | 1016.3 |
| 20260507221238 | 19 | 304 | 0.0 | 0.0 | 0.00 | 0.00 | 0.00 | 24 | 1016.0 |
| 20260507220735 | 19 | 329 | 0.0 | 0.0 | 0.00 | 0.00 | 0.00 | 23 | 1016.3 |
| 20260507220233 | 20 | 297 | 1.6 | 3.2 | 0.00 | 0.00 | 0.00 | 22 | 1016.3 |
| 20260507215729 | 18 | 327 | 1.6 | 3.2 | 0.00 | 0.00 | 0.00 | 23 | 1016.2 |
| 20260507215227 | 18 | 314 | 1.6 | 3.2 | 0.00 | 0.00 | 0.00 | 24 | 1016.3 |
| 20260507214723 | 18 | 65 | 1.6 | 3.2 | 0.00 | 0.00 | 0.00 | 22 | 1016.3 |
| 20260507214220 | 19 | 291 | 0.0 | 0.0 | 0.00 | 0.00 | 0.00 | 24 | 1016.4 |
| 20260507213716 | 20 | 296 | 1.6 | 1.6 | 0.00 | 0.00 | 0.00 | 22 | 1016.4 |
| 20260507213213 | 20 | 309 | 0.0 | 1.6 | 0.00 | 0.00 | 0.00 | 21 | 1016.3 |
| 20260507212709 | 19 | 342 | 0.0 | 0.0 | 0.00 | 0.00 | 0.00 | 24 | 1016.4 |
| 20260507212206 | 19 | 20 | 0.0 | 0.0 | 0.00 | 0.00 | 0.00 | 22 | 1016.6 |
| 20260507211703 | 20 | 334 | 1.6 | 1.6 | 0.00 | 0.00 | 0.00 | 23 | 1016.6 |
| 20260507211158 | 20 | 285 | 3.2 | 4.8 | 0.00 | 0.00 | 0.00 | 21 | 1016.8 |
| 20260507210656 | 20 | 310 | 4.8 | 4.8 | 0.00 | 0.00 | 0.00 | 20 | 1016.8 |
| 20260507210152 | 20 | 318 | 0.0 | 0.0 | 0.00 | 0.00 | 0.00 | 22 | 1016.6 |
| 20260507205649 | 20 | 324 | 3.2 | 3.2 | 0.00 | 0.00 | 0.00 | 20 | 1016.9 |
| 20260507205146 | 20 | 324 | 0.0 | 0.0 | 0.00 | 0.00 | 0.00 | 22 | 1016.9 |
| 20260507204642 | 20 | 327 | 1.6 | 1.6 | 0.00 | 0.00 | 0.00 | 21 | 1017.1 |
| 20260507204140 | 20 | 351 | 0.0 | 1.6 | 0.00 | 0.00 | 0.00 | 21 | 1017.1 |
| 20260507203638 | 20 | 340 | 3.2 | 3.2 | 0.00 | 0.00 | 0.00 | 19 | 1017.2 |
| 20260507203135 | 20 | 315 | 1.6 | 1.6 | 0.00 | 0.00 | 0.00 | 20 | 1017.4 |
| 20260507202631 | 20 | 31 | 6.4 | 9.7 | 0.00 | 0.00 | 0.00 | 21 | 1017.4 |
| 20260507202127 | 20 | 64 | 1.6 | 3.2 | 0.00 | 0.00 | 0.00 | 23 | 1017.2 |
| 20260507201622 | 20 | 330 | 1.6 | 1.6 | 0.00 | 0.00 | 0.00 | 20 | 1017.6 |
| 20260507201119 | 20 | 342 | 1.6 | 3.2 | 0.00 | 0.00 | 0.00 | 21 | 1017.6 |
| 20260507200615 | 21 | 11 | 4.8 | 6.4 | 0.00 | 0.00 | 0.00 | 19 | 1017.6 |
| 20260507200111 | 20 | 33 | 4.8 | 4.8 | 0.00 | 0.00 | 0.00 | 20 | 1017.7 |
| 20260507195609 | 20 | 18 | 4.8 | 4.8 | 0.00 | 0.00 | 0.00 | 21 | 1017.7 |
| 20260507195106 | 20 | 346 | 3.2 | 4.8 | 0.00 | 0.00 | 0.00 | 20 | 1017.7 |
| 20260507194602 | 20 | 8 | 1.6 | 3.2 | 0.00 | 0.00 | 0.00 | 23 | 1017.8 |
| 20260507194058 | 20 | 9 | 4.8 | 9.7 | 0.00 | 0.00 | 0.00 | 21 | 1018.2 |
| 20260507193555 | 20 | 86 | 3.2 | 4.8 | 0.00 | 0.00 | 0.00 | 20 | 1017.8 |
| 20260507193052 | 20 | 346 | 9.7 | 12.9 | 0.00 | 0.00 | 0.00 | 19 | 1018.2 |
| 20260507192548 | 20 | 334 | 3.2 | 4.8 | 0.00 | 0.00 | 0.00 | 20 | 1018.3 |
| 20260507192045 | 20 | 12 | 3.2 | 4.8 | 0.00 | 0.00 | 0.00 | 20 | 1018.0 |
| 20260507191540 | 21 | 317 | 3.2 | 3.2 | 0.00 | 0.00 | 0.00 | 18 | 1018.2 |
| 20260507191038 | 20 | 341 | 1.6 | 3.2 | 0.00 | 0.00 | 0.00 | 17 | 1018.4 |
| 20260507190535 | 20 | 305 | 1.6 | 3.2 | 0.00 | 0.00 | 0.00 | 18 | 1018.2 |
| 20260507190034 | 20 | 34 | 3.2 | 3.2 | 0.00 | 0.00 | 0.00 | 19 | 1018.4 |
| 20260507185532 | 20 | 282 | 3.2 | 3.2 | 0.00 | 0.00 | 0.00 | 19 | 1018.3 |
| 20260507185028 | 20 | 331 | 1.6 | 1.6 | 0.00 | 0.00 | 0.00 | 19 | 1018.4 |
| 20260507184526 | 20 | 312 | 0.0 | 0.0 | 0.00 | 0.00 | 0.00 | 24 | 1018.4 |
| 20260507184024 | 21 | 331 | 3.2 | 4.8 | 0.00 | 0.00 | 0.00 | 16 | 1018.4 |
| 20260507183519 | 20 | 324 | 1.6 | 1.6 | 0.00 | 0.00 | 0.00 | 17 | 1018.4 |
| 20260507183017 | 20 | 355 | 1.6 | 1.6 | 0.00 | 0.00 | 0.00 | 19 | 1018.6 |
| 20260507182513 | 20 | 357 | 0.0 | 3.2 | 0.00 | 0.00 | 0.00 | 18 | 1018.3 |
| 20260507182009 | 20 | 1 | 0.0 | 1.6 | 0.00 | 0.00 | 0.00 | 17 | 1018.4 |
| 20260507181506 | 20 | 350 | 1.6 | 3.2 | 0.00 | 0.00 | 0.00 | 18 | 1018.4 |
| 20260507181002 | 20 | 28 | 3.2 | 4.8 | 0.00 | 0.00 | 0.00 | 21 | 1018.9 |
| 20260507180459 | 18 | 284 | 6.4 | 9.7 | 0.00 | 0.00 | 0.00 | 16 | 1018.9 |
| 20260507175955 | 18 | 147 | 4.8 | 6.4 | 0.00 | 0.00 | 0.00 | 19 | 1019.0 |
| 20260507175452 | 18 | 290 | 4.8 | 4.8 | 0.00 | 0.00 | 0.00 | 16 | 1019.2 |
| 20260507174949 | 19 | 34 | 1.6 | 3.2 | 0.00 | 0.00 | 0.00 | 16 | 1019.3 |
| 20260507174446 | 19 | 347 | 3.2 | 3.2 | 0.00 | 0.00 | 0.00 | 17 | 1019.2 |
| 20260507173944 | 18 | 332 | 6.4 | 6.4 | 0.00 | 0.00 | 0.00 | 16 | 1019.2 |
| 20260507173441 | 18 | 290 | 4.8 | 9.7 | 0.00 | 0.00 | 0.00 | 17 | 1019.0 |
| 20260507172938 | 18 | 318 | 3.2 | 4.8 | 0.00 | 0.00 | 0.00 | 14 | 1019.3 |
| 20260507172434 | 18 | 50 | 3.2 | 3.2 | 0.00 | 0.00 | 0.00 | 20 | 1019.4 |
| 20260507171930 | 18 | 19 | 1.6 | 1.6 | 0.00 | 0.00 | 0.00 | 20 | 1019.4 |
| 20260507171426 | 18 | 13 | 1.6 | 1.6 | 0.00 | 0.00 | 0.00 | 17 | 1019.6 |
| 20260507170924 | 17 | 357 | 3.2 | 4.8 | 0.00 | 0.00 | 0.00 | 18 | 1019.6 |
| 20260507170420 | 18 | 321 | 0.0 | 1.6 | 0.00 | 0.00 | 0.00 | 19 | 1019.5 |
| 20260507165917 | 17 | 333 | 0.0 | 1.6 | 0.00 | 0.00 | 0.00 | 17 | 1019.9 |
| 20260507165413 | 17 | 320 | 3.2 | 3.2 | 0.00 | 0.00 | 0.00 | 19 | 1019.9 |
| 20260507164909 | 17 | 279 | 6.4 | 6.4 | 0.00 | 0.00 | 0.00 | 19 | 1020.0 |
| 20260507164406 | 17 | 270 | 6.4 | 6.4 | 0.00 | 0.00 | 0.00 | 20 | 1019.6 |
| 20260507163903 | 17 | 4 | 0.0 | 1.6 | 0.00 | 0.00 | 0.00 | 22 | 1020.1 |
| 20260507163400 | 17 | 341 | 0.0 | 0.0 | 0.00 | 0.00 | 0.00 | 21 | 1020.0 |
| 20260507162857 | 16 | 351 | 1.6 | 1.6 | 0.00 | 0.00 | 0.00 | 19 | 1019.9 |
| 20260507162352 | 17 | 3 | 3.2 | 6.4 | 0.00 | 0.00 | 0.00 | 20 | 1020.1 |
| 20260507161850 | 17 | 348 | 4.8 | 6.4 | 0.00 | 0.00 | 0.00 | 20 | 1020.2 |
| 20260507161346 | 17 | 359 | 4.8 | 4.8 | 0.00 | 0.00 | 0.00 | 20 | 1020.0 |
| 20260507160843 | 17 | 17 | 3.2 | 4.8 | 0.00 | 0.00 | 0.00 | 22 | 1019.9 |
| 20260507160338 | 17 | 355 | 0.0 | 1.6 | 0.00 | 0.00 | 0.00 | 19 | 1020.1 |
| 20260507155835 | 16 | 346 | 0.0 | 0.0 | 0.00 | 0.00 | 0.00 | 21 | 1020.1 |
| 20260507155331 | 16 | 316 | 3.2 | 3.2 | 0.00 | 0.00 | 0.00 | 20 | 1020.2 |
| 20260507154828 | 16 | 343 | 1.6 | 1.6 | 0.00 | 0.00 | 0.00 | 21 | 1020.4 |
| 20260507154325 | 16 | 338 | 1.6 | 3.2 | 0.00 | 0.00 | 0.00 | 23 | 1020.2 |
| 20260507153822 | 15 | 331 | 0.0 | 0.0 | 0.00 | 0.00 | 0.00 | 24 | 1020.1 |
| 20260507153318 | 15 | 305 | 0.0 | 1.6 | 0.00 | 0.00 | 0.00 | 24 | 1020.2 |
| 20260507152815 | 15 | 297 | 3.2 | 3.2 | 0.00 | 0.00 | 0.00 | 25 | 1020.2 |
| 20260507152311 | 15 | 308 | 1.6 | 1.6 | 0.00 | 0.00 | 0.00 | 25 | 1020.4 |
| 20260507151807 | 15 | 320 | 1.6 | 1.6 | 0.00 | 0.00 | 0.00 | 25 | 1020.5 |
| 20260507151303 | 16 | 319 | 1.6 | 1.6 | 0.00 | 0.00 | 0.00 | 25 | 1020.4 |
| 20260507150801 | 15 | 22 | 0.0 | 0.0 | 0.00 | 0.00 | 0.00 | 32 | 1020.5 |
| 20260507150257 | 15 | 19 | 0.0 | 1.6 | 0.00 | 0.00 | 0.00 | 31 | 1020.4 |
| 20260507145753 | 15 | 20 | 1.6 | 3.2 | 0.00 | 0.00 | 0.00 | 28 | 1020.2 |
| 20260507145250 | 15 | 12 | 0.0 | 1.6 | 0.00 | 0.00 | 0.00 | 33 | 1020.4 |
| 20260507144747 | 15 | 311 | 0.0 | 1.6 | 0.00 | 0.00 | 0.00 | 29 | 1020.1 |
| 20260507144244 | 14 | 298 | 3.2 | 6.4 | 0.00 | 0.00 | 0.00 | 33 | 1020.4 |
| 20260507143741 | 12 | 296 | 0.0 | 0.0 | 0.00 | 0.00 | 0.00 | 36 | 1020.2 |
| 20260507143238 | 12 | 296 | 0.0 | 0.0 | 0.00 | 0.00 | 0.00 | 38 | 1020.2 |
| 20260507142734 | 12 | 301 | 3.2 | 3.2 | 0.00 | 0.00 | 0.00 | 37 | 1020.1 |
| 20260507142231 | 11 | 300 | 0.0 | 1.6 | 0.00 | 0.00 | 0.00 | 38 | 1020.2 |
| 20260507141727 | 13 | 299 | 1.6 | 3.2 | 0.00 | 0.00 | 0.00 | 34 | 1020.2 |
| 20260507141224 | 14 | 322 | 0.0 | 0.0 | 0.00 | 0.00 | 0.00 | 28 | 1020.4 |
| 20260507140720 | 12 | 322 | 0.0 | 0.0 | 0.00 | 0.00 | 0.00 | 33 | 1020.5 |
| 20260507140218 | 11 | 322 | 0.0 | 0.0 | 0.00 | 0.00 | 0.00 | 34 | 1020.4 |
| 20260507135715 | 10 | 320 | 0.0 | 0.0 | 0.00 | 0.00 | 0.00 | 40 | 1020.4 |
| 20260507135212 | 10 | 319 | 0.0 | 0.0 | 0.00 | 0.00 | 0.00 | 38 | 1020.6 |
| 20260507134708 | 9 | 296 | 1.6 | 3.2 | 0.00 | 0.00 | 0.00 | 41 | 1020.2 |
| 20260507134205 | 8 | 311 | 4.8 | 4.8 | 0.00 | 0.00 | 0.00 | 42 | 1020.5 |
| 20260507133700 | 8 | 295 | 8.0 | 9.7 | 0.00 | 0.00 | 0.00 | 43 | 1020.4 |
| 20260507133158 | 7 | 313 | 4.8 | 4.8 | 0.00 | 0.00 | 0.00 | 44 | 1020.4 |
| 20260507132655 | 7 | 311 | 3.2 | 3.2 | 0.00 | 0.00 | 0.00 | 45 | 1020.4 |
| 20260507132151 | 7 | 291 | 0.0 | 0.0 | 0.00 | 0.00 | 0.00 | 46 | 1020.4 |
| 20260507131648 | 7 | 288 | 3.2 | 3.2 | 0.00 | 0.00 | 0.00 | 46 | 1020.2 |
| 20260507131146 | 6 | 268 | 3.2 | 4.8 | 0.00 | 0.00 | 0.00 | 46 | 1020.1 |
| 20260507130642 | 6 | 287 | 0.0 | 1.6 | 0.00 | 0.00 | 0.00 | 47 | 1020.1 |
| 20260507130140 | 6 | 278 | 1.6 | 1.6 | 0.00 | 0.00 | 0.00 | 47 | 1020.4 |
| 20260507125639 | 6 | 276 | 1.6 | 1.6 | 0.00 | 0.00 | 0.00 | 47 | 1020.2 |
| 20260507125136 | 5 | 284 | 1.6 | 1.6 | 0.00 | 0.00 | 0.00 | 49 | 1020.2 |
| 20260507124632 | 5 | 279 | 6.4 | 9.7 | 0.00 | 0.00 | 0.00 | 49 | 1020.1 |
| 20260507124130 | 5 | 288 | 4.8 | 9.7 | 0.00 | 0.00 | 0.00 | 49 | 1020.1 |
| 20260507123628 | 5 | 278 | 1.6 | 3.2 | 0.00 | 0.00 | 0.00 | 50 | 1019.9 |
| 20260507123125 | 4 | 265 | 3.2 | 4.8 | 0.00 | 0.00 | 0.00 | 51 | 1020.0 |
| 20260507122620 | 3 | 282 | 4.8 | 4.8 | 0.00 | 0.00 | 0.00 | 53 | 1020.1 |
| 20260507122116 | 2 | 273 | 1.6 | 3.2 | 0.00 | 0.00 | 0.00 | 56 | 1020.0 |
| 20260507121612 | 2 | 287 | 3.2 | 3.2 | 0.00 | 0.00 | 0.00 | 59 | 1020.0 |
| 20260507121108 | 2 | 292 | 1.6 | 3.2 | 0.00 | 0.00 | 0.00 | 59 | 1020.0 |
| 20260507120604 | 2 | 291 | 1.6 | 3.2 | 0.00 | 0.00 | 0.00 | 59 | 1019.9 |
| 20260507115557 | 1 | 304 | 1.6 | 3.2 | 0.00 | 0.00 | 0.00 | 62 | 1019.9 |
| 20260507115053 | 1 | 303 | 1.6 | 1.6 | 0.00 | 0.00 | 0.00 | 61 | 1020.0 |
| 20260507114549 | 1 | 304 | 0.0 | 1.6 | 0.00 | 0.00 | 0.00 | 62 | 1020.0 |
| 20260507114047 | 2 | 304 | 0.0 | 0.0 | 0.00 | 0.00 | 0.00 | 61 | 1020.1 |
| 20260507113543 | 3 | 297 | 1.6 | 1.6 | 0.00 | 0.00 | 0.00 | 54 | 1020.0 |
| 20260507113041 | 3 | 276 | 6.4 | 6.4 | 0.00 | 0.00 | 0.00 | 54 | 1019.9 |
| 20260507112538 | 3 | 292 | 0.0 | 0.0 | 0.00 | 0.00 | 0.00 | 53 | 1020.0 |
| 20260507112035 | 2 | 299 | 1.6 | 1.6 | 0.00 | 0.00 | 0.00 | 54 | 1020.1 |
| 20260507111532 | 3 | 315 | 0.0 | 1.6 | 0.00 | 0.00 | 0.00 | 54 | 1020.1 |
| 20260507111029 | 2 | 315 | 3.2 | 3.2 | 0.00 | 0.00 | 0.00 | 52 | 1020.1 |
| 20260507110525 | 2 | 297 | 1.6 | 1.6 | 0.00 | 0.00 | 0.00 | 57 | 1020.1 |
| 20260507110022 | 2 | 309 | 1.6 | 1.6 | 0.00 | 0.00 | 0.00 | 61 | 1019.9 |
| 20260507105519 | 2 | 272 | 1.6 | 1.6 | 0.00 | 0.00 | 0.00 | 60 | 1020.1 |
| 20260507105015 | 2 | 285 | 1.6 | 1.6 | 0.00 | 0.00 | 0.00 | 61 | 1020.2 |
| 20260507104513 | 2 | 284 | 3.2 | 3.2 | 0.00 | 0.00 | 0.00 | 65 | 1020.1 |
| 20260507104008 | 1 | 278 | 3.2 | 4.8 | 0.00 | 0.00 | 0.00 | 66 | 1020.1 |
| 20260507103505 | 1 | 293 | 1.6 | 1.6 | 0.00 | 0.00 | 0.00 | 68 | 1020.4 |
| 20260507103001 | 1 | 291 | 0.0 | 0.0 | 0.00 | 0.00 | 0.00 | 67 | 1020.2 |
| 20260507102458 | 2 | 294 | 0.0 | 0.0 | 0.00 | 0.00 | 0.00 | 65 | 1020.2 |
| 20260507101954 | 1 | 289 | 0.0 | 1.6 | 0.00 | 0.00 | 0.00 | 64 | 1020.2 |
| 20260507101449 | 1 | 290 | 0.0 | 1.6 | 0.00 | 0.00 | 0.00 | 66 | 1020.2 |
| 20260507100946 | 1 | 288 | 1.6 | 1.6 | 0.00 | 0.00 | 0.00 | 69 | 1020.4 |
| 20260507100444 | 0 | 295 | 1.6 | 1.6 | 0.00 | 0.00 | 0.00 | 72 | 1020.4 |
| 20260507095942 | 0 | 295 | 0.0 | 0.0 | 0.00 | 0.00 | 0.00 | 74 | 1020.4 |
| 20260507095439 | 0 | 293 | 1.6 | 1.6 | 0.00 | 0.00 | 0.00 | 78 | 1020.5 |
| 20260507094936 | -1 | 270 | 1.6 | 1.6 | 0.00 | 0.00 | 0.00 | 81 | 1020.5 |
| 20260507094432 | -1 | 316 | 0.0 | 0.0 | 0.00 | 0.00 | 0.00 | 86 | 1020.5 |
| 20260507093929 | -2 | 318 | 0.0 | 0.0 | 0.00 | 0.00 | 0.00 | 88 | 1020.6 |
| 20260507093427 | -2 | 343 | 0.0 | 0.0 | 0.00 | 0.00 | 0.00 | 93 | 1020.6 |
| 20260507092925 | -2 | 325 | 1.6 | 1.6 | 0.00 | 0.00 | 0.00 | 94 | 1020.5 |
| 20260507092421 | -2 | 334 | 0.0 | 0.0 | 0.00 | 0.00 | 0.00 | 94 | 1020.2 |
| 20260507091918 | -2 | 327 | 1.6 | 1.6 | 0.00 | 0.00 | 0.00 | 94 | 1020.6 |
| 20260507091414 | -2 | 327 | 0.0 | 0.0 | 0.00 | 0.00 | 0.00 | 94 | 1020.8 |
| 20260507090910 | -2 | 327 | 1.6 | 1.6 | 0.00 | 0.00 | 0.00 | 94 | 1020.8 |
| 20260507090407 | -2 | 319 | 1.6 | 3.2 | 0.00 | 0.00 | 0.00 | 94 | 1020.8 |
| 20260507085903 | -2 | 323 | 0.0 | 0.0 | 0.00 | 0.00 | 0.00 | 95 | 1020.8 |
| 20260507085400 | -2 | 324 | 0.0 | 0.0 | 0.00 | 0.00 | 0.00 | 95 | 1020.7 |
| 20260507084858 | -2 | 323 | 1.6 | 1.6 | 0.00 | 0.00 | 0.00 | 95 | 1020.8 |
| 20260507084354 | -2 | 317 | 0.0 | 1.6 | 0.00 | 0.00 | 0.00 | 95 | 1020.8 |
| 20260507083851 | -2 | 317 | 0.0 | 0.0 | 0.00 | 0.00 | 0.00 | 95 | 1021.1 |
| 20260507083347 | -2 | 318 | 0.0 | 0.0 | 0.00 | 0.00 | 0.00 | 95 | 1021.1 |
| 20260507082844 | -2 | 320 | 0.0 | 0.0 | 0.00 | 0.00 | 0.00 | 95 | 1021.1 |
| 20260507082339 | -2 | 319 | 1.6 | 1.6 | 0.00 | 0.00 | 0.00 | 95 | 1021.1 |
| 20260507081837 | -2 | 322 | 0.0 | 0.0 | 0.00 | 0.00 | 0.00 | 94 | 1021.3 |
| 20260507081333 | -2 | 321 | 0.0 | 0.0 | 0.00 | 0.00 | 0.00 | 94 | 1021.3 |
| 20260507080830 | -1 | 321 | 0.0 | 0.0 | 0.00 | 0.00 | 0.00 | 94 | 1021.3 |
| 20260507080326 | -1 | 320 | 0.0 | 0.0 | 0.00 | 0.00 | 0.00 | 94 | 1021.3 |
| 20260507075821 | -1 | 321 | 0.0 | 0.0 | 0.00 | 0.00 | 0.00 | 94 | 1021.6 |
| 20260507075318 | -1 | 321 | 0.0 | 0.0 | 0.00 | 0.00 | 0.00 | 94 | 1021.6 |
| 20260507074815 | -1 | 320 | 0.0 | 0.0 | 0.00 | 0.00 | 0.00 | 94 | 1021.4 |
| 20260507074312 | -1 | 320 | 1.6 | 1.6 | 0.00 | 0.00 | 0.00 | 94 | 1021.4 |
| 20260507073809 | -1 | 322 | 0.0 | 0.0 | 0.00 | 0.00 | 0.00 | 94 | 1021.8 |
| 20260507073306 | -1 | 320 | 1.6 | 1.6 | 0.00 | 0.00 | 0.00 | 94 | 1021.7 |
| 20260507072803 | -1 | 318 | 1.6 | 1.6 | 0.00 | 0.00 | 0.00 | 94 | 1021.7 |
| 20260507072300 | -1 | 319 | 0.0 | 1.6 | 0.00 | 0.00 | 0.00 | 95 | 1021.7 |
| 20260507071758 | -1 | 318 | 1.6 | 1.6 | 0.00 | 0.00 | 0.00 | 95 | 1021.6 |
| 20260507071254 | -1 | 319 | 1.6 | 1.6 | 0.00 | 0.00 | 0.00 | 95 | 1021.7 |
| 20260507070751 | -1 | 316 | 0.0 | 0.0 | 0.00 | 0.00 | 0.00 | 95 | 1021.7 |
| 20260507070248 | -1 | 314 | 3.2 | 3.2 | 0.00 | 0.00 | 0.00 | 95 | 1021.8 |
| 20260507065744 | -1 | 344 | 0.0 | 1.6 | 0.00 | 0.00 | 0.00 | 95 | 1021.8 |
| 20260507065241 | -2 | 344 | 1.6 | 3.2 | 0.00 | 0.00 | 0.00 | 95 | 1022.0 |
| 20260507064739 | -2 | 344 | 0.0 | 1.6 | 0.00 | 0.00 | 0.00 | 95 | 1021.9 |
| 20260507064238 | -2 | 344 | 0.0 | 0.0 | 0.00 | 0.00 | 0.00 | 95 | 1021.9 |
| 20260507063734 | -2 | 344 | 0.0 | 0.0 | 0.00 | 0.00 | 0.00 | 95 | 1022.0 |
| 20260507063231 | -2 | 344 | 0.0 | 0.0 | 0.00 | 0.00 | 0.00 | 95 | 1022.0 |
| 20260507062728 | -2 | 344 | 0.0 | 0.0 | 0.00 | 0.00 | 0.00 | 95 | 1022.2 |
| 20260507062225 | -2 | 344 | 0.0 | 0.0 | 0.00 | 0.00 | 0.00 | 95 | 1021.8 |
| 20260507061723 | -2 | 344 | 0.0 | 0.0 | 0.00 | 0.00 | 0.00 | 95 | 1021.9 |
| 20260507061221 | -2 | 344 | 0.0 | 0.0 | 0.00 | 0.00 | 0.00 | 94 | 1021.9 |
| 20260507060719 | -1 | 344 | 0.0 | 0.0 | 0.00 | 0.00 | 0.00 | 94 | 1021.9 |
| 20260507060215 | -1 | 344 | 0.0 | 0.0 | 0.00 | 0.00 | 0.00 | 95 | 1021.9 |
| 20260507055711 | -1 | 344 | 0.0 | 0.0 | 0.00 | 0.36 | 0.36 | 95 | 1022.0 |
| 20260507055207 | -1 | 344 | 0.0 | 0.0 | 0.00 | 0.36 | 0.36 | 94 | 1021.8 |
| 20260507054703 | -1 | 344 | 0.0 | 0.0 | 0.00 | 0.36 | 0.36 | 95 | 1021.8 |
| 20260507054200 | -1 | 344 | 0.0 | 0.0 | 0.00 | 0.36 | 0.36 | 95 | 1021.6 |
| 20260507053658 | -1 | 344 | 0.0 | 0.0 | 0.00 | 0.36 | 0.36 | 95 | 1021.8 |
| 20260507053156 | -2 | 344 | 0.0 | 0.0 | 0.00 | 0.36 | 0.36 | 95 | 1021.8 |
| 20260507052654 | -2 | 344 | 0.0 | 0.0 | 0.00 | 0.36 | 0.36 | 95 | 1021.7 |
| 20260507052150 | -1 | 344 | 0.0 | 0.0 | 0.00 | 0.36 | 0.36 | 94 | 1021.6 |
| 20260507051648 | -1 | 344 | 0.0 | 0.0 | 0.00 | 0.36 | 0.36 | 94 | 1021.7 |
| 20260507051144 | -1 | 344 | 0.0 | 0.0 | 0.00 | 0.36 | 0.36 | 94 | 1021.3 |
| 20260507050641 | -1 | 344 | 0.0 | 0.0 | 0.00 | 0.36 | 0.36 | 94 | 1021.4 |
| 20260507050138 | -1 | 344 | 0.0 | 0.0 | 0.00 | 0.36 | 0.36 | 94 | 1021.4 |
| 20260507045635 | -1 | 344 | 0.0 | 0.0 | 0.00 | 0.36 | 0.36 | 94 | 1021.3 |
| 20260507045131 | -1 | 344 | 0.0 | 0.0 | 0.00 | 0.36 | 0.36 | 94 | 1021.4 |
| 20260507044629 | -1 | 344 | 0.0 | 0.0 | 0.00 | 0.36 | 0.36 | 95 | 1021.6 |
| 20260507044125 | -1 | 344 | 0.0 | 0.0 | 0.00 | 0.36 | 0.36 | 94 | 1021.7 |
| 20260507043621 | -1 | 344 | 0.0 | 0.0 | 0.00 | 0.36 | 0.36 | 94 | 1021.6 |
| 20260507043118 | -1 | 344 | 0.0 | 0.0 | 0.00 | 0.36 | 0.36 | 93 | 1021.7 |
| 20260507042614 | -1 | 344 | 0.0 | 0.0 | 0.00 | 0.36 | 0.36 | 93 | 1021.6 |
| 20260507042110 | -1 | 344 | 0.0 | 0.0 | 0.00 | 0.36 | 0.36 | 93 | 1021.6 |
| 20260507041607 | -1 | 344 | 0.0 | 0.0 | 0.00 | 0.36 | 0.36 | 93 | 1021.6 |
| 20260507041104 | -1 | 344 | 0.0 | 0.0 | 0.00 | 0.36 | 0.36 | 93 | 1021.4 |
| 20260507040601 | -1 | 344 | 0.0 | 0.0 | 0.00 | 0.36 | 0.36 | 93 | 1021.6 |
| 20260507040057 | -1 | 344 | 0.0 | 0.0 | 0.00 | 0.36 | 0.36 | 93 | 1021.6 |
| 20260507035553 | -1 | 344 | 0.0 | 0.0 | 0.00 | 0.36 | 0.36 | 92 | 1021.4 |
| 20260507035049 | -1 | 344 | 0.0 | 0.0 | 0.00 | 0.36 | 0.36 | 92 | 1021.4 |
| 20260507034546 | -1 | 344 | 0.0 | 0.0 | 0.00 | 0.36 | 0.36 | 92 | 1021.6 |
| 20260507034044 | -1 | 344 | 0.0 | 0.0 | 0.00 | 0.36 | 0.36 | 93 | 1021.4 |
| 20260507033542 | -1 | 344 | 0.0 | 1.6 | 0.00 | 0.36 | 0.36 | 93 | 1021.4 |
| 20260507033039 | -1 | 344 | 1.6 | 1.6 | 0.00 | 0.36 | 0.36 | 93 | 1021.4 |
| 20260507032536 | -1 | 344 | 0.0 | 0.0 | 0.00 | 0.36 | 0.36 | 93 | 1021.4 |
| 20260507032032 | -1 | 344 | 0.0 | 0.0 | 0.00 | 0.36 | 0.36 | 92 | 1021.2 |
| 20260507031528 | 0 | 344 | 0.0 | 0.0 | 0.00 | 0.36 | 0.36 | 92 | 1021.6 |
| 20260507031026 | 0 | 344 | 0.0 | 1.6 | 0.00 | 0.36 | 0.36 | 93 | 1021.2 |
| 20260507030522 | 0 | 344 | 0.0 | 0.0 | 0.00 | 0.36 | 0.36 | 93 | 1021.3 |
| 20260507030020 | 0 | 344 | 0.0 | 1.6 | 0.00 | 0.36 | 0.36 | 93 | 1021.3 |
| 20260507025517 | 0 | 344 | 0.0 | 0.0 | 0.00 | 0.36 | 0.36 | 93 | 1021.0 |
| 20260507025014 | 0 | 344 | 0.0 | 0.0 | 0.00 | 0.36 | 0.36 | 93 | 1021.1 |
| 20260507024512 | 0 | 344 | 0.0 | 0.0 | 0.00 | 0.36 | 0.36 | 92 | 1021.2 |
| 20260507024008 | 0 | 344 | 0.0 | 0.0 | 0.00 | 0.36 | 0.36 | 92 | 1021.1 |
| 20260507023504 | 0 | 344 | 0.0 | 0.0 | 0.00 | 0.36 | 0.36 | 92 | 1021.0 |
| 20260507023002 | 0 | 344 | 0.0 | 0.0 | 0.00 | 0.36 | 0.36 | 91 | 1021.1 |
| 20260507022459 | 0 | 24 | 0.0 | 0.0 | 0.00 | 0.36 | 0.36 | 91 | 1021.0 |
| 20260507021954 | 0 | 24 | 0.0 | 0.0 | 0.00 | 0.36 | 0.36 | 90 | 1020.8 |
| 20260507021450 | 0 | 24 | 0.0 | 0.0 | 0.00 | 0.36 | 0.36 | 90 | 1020.7 |
| 20260507020947 | 0 | 24 | 0.0 | 0.0 | 0.00 | 0.36 | 0.36 | 89 | 1020.7 |
| 20260507020444 | 1 | 24 | 0.0 | 0.0 | 0.00 | 0.36 | 0.36 | 88 | 1020.7 |
| 20260507015941 | 1 | 24 | 0.0 | 0.0 | 0.00 | 0.36 | 0.36 | 88 | 1021.0 |
| 20260507015439 | 1 | 25 | 0.0 | 0.0 | 0.00 | 0.36 | 0.36 | 87 | 1020.7 |
| 20260507014936 | 1 | 25 | 0.0 | 0.0 | 0.00 | 0.36 | 0.36 | 86 | 1020.6 |